Weather in Yaroslavka

Ukraine / Khmelnitsky District     49°28′52″N   27°18′36″E
temp.,
°C
wind,
m/s
gust,
m/s
humid.,
%
clouds,
%
prec.,
mm/h
press.,
hPa
HPBL,
m
19 january, wed
wed1923:00−5nnw715785 0.0 1029650
02:00−6nw513855 0.0 1030412
05:00−7wnw4109189 0.0 1029239
08:00−6wnw4109596 0.0 1029289
11:00−2wnw6987100 0.1 1028656
14:00−2w5891100 0.1 1025492
17:00−5wsw259583 0.0 102466
20:00−2w4994100 0.1 1022298
20 january, thu
thu2023:00−4sw3893100 0.0 1020165
02:00−4sw31088100 0.0 1018170
05:00−5ssw3984100 0.0 1015140
08:00−6sw3986100 0.0 1014127
11:00−1w717746 0.0 1012711
14:000wsw71377100 0.0 1009816
17:00−1wsw51293100 0.1 1008534
20:00−2wsw51290100 0.1 1007437
21 january, fri
fri2123:00−4w61388100 0.1 1009583
02:00−5w8158774 0.1 1010752
05:00−5w101682100 0.3 10101092
08:00−5w101683100 0.3 1010996
11:00−5w101785100 0.1 10111045
14:00−4w91585100 0.1 10101047
17:00−4w91591100 0.2 1011992
20:00−5w91685100 0.3 1011821
22 january, sat
sat2223:00−5w91693100 0.3 1011905
02:00−5w81593100 0.8 1010971
05:00−5wnw81488100 0.1 1010810
08:00−5wnw71488100 0.2 1010752
11:00−4w7119099 0.1 1011907
14:00−4w71192100 0.5 1011860
17:00−5w51194100 0.8 1012697
20:00−6nw4109477 1.0 1015362
23 january, sun
sun2323:00−6nw5109494 0.1 1017525
02:00−7nnw499489 0.4 1019486
05:00−8nw499485 0.1 1020385
08:00−8nnw489581 0.4 1022348
11:00−7n4690100 0.1 1024501
14:00−6nne4686100 0.2 1026771
17:00−8n4794100 0.1 1028315
20:00−9n3896100 0.2 1030219